Selawik, AK

3:23 PM AKST on February 25, 2017 (GMT -0900)
Selawik

Weather History for PASK - December, 2012

Change the Weather History Date:

Sunday, December 2, 2012

  Actual Average Record
Temperature  
Mean Temperature -6 °F -  
Max Temperature -4 °F 3 °F 30 °F (2006)
Min Temperature -9 °F -4 °F -40 °F (2000)
Degree Days  
Heating Degree Days 72    
Moisture  
Dew Point -11 °F    
Average Humidity 83    
Maximum Humidity 100    
Minimum Humidity 65    
Precipitation  
Precipitation 0.00 in - - ()
Sea Level Pressure  
Sea Level Pressure 30.09 in    
Wind  
Wind Speed 3 mph (WSW)    
Max Wind Speed 8 mph    
Max Gust Speed -    
Visibility 10 miles    
Events      
Averages and records for this station are not official NWS values.
T = Trace of Precipitation, MM = Missing Value Source: NWS Daily Summary

Daily Weather History Graph

Daily Weather History Graph

Search for Another Location

Airport or City:

Trip Planner

Search our weather history database for the weather conditions in past years. The results will help you decide how hot, cold, wet, or windy it might be!

Date:

Astronomy

Dec. 02, 2012 Rise Set
Actual Time 11:45 AM AKST 3:13 PM AKST
Civil Twilight 10:13 AM AKST 4:45 PM AKST
Nautical Twilight 8:57 AM AKST 6:01 PM AKST
Astronomical Twilight 7:52 AM AKST 7:06 PM AKST
Moon 8:28 PM AKST (12/2) 1:32 PM AKST (12/2)
Length of Visible Light 6h 32m
Length of Day
3h 27m
Waning Gibbous, 84% of the Moon is Illuminated
Dec 2
Waning Gibbous
Dec 6
Last Quarter
Dec 12
New
Dec 19
First Quarter
Dec 28
Full

Hourly Weather History & Observations

Time (AKST) Temp. Windchill Dew Point Humidity Pressure Visibility Wind Dir Wind Speed Gust Speed Precip Events Conditions
12:16 AM -7.6 °F - -13.0 °F 77% 29.99 in 10.0 mi Calm Calm - N/A   Mostly Cloudy
12:36 AM -9.4 °F - -14.8 °F 77% 29.99 in 10.0 mi Calm Calm - N/A   Partly Cloudy
12:56 AM -7.6 °F - -11.2 °F 84% 29.99 in 10.0 mi Calm Calm - N/A   Clear
1:16 AM -7.6 °F - -13.0 °F 77% 29.99 in 10.0 mi Calm Calm - N/A   Clear
1:36 AM -7.6 °F - -13.0 °F 77% 29.98 in 10.0 mi Calm Calm - N/A   Clear
1:56 AM -7.6 °F -16.5 °F -9.4 °F 92% 29.98 in 10.0 mi West 3.5 mph - N/A   Clear
2:16 AM -7.6 °F -16.5 °F -14.8 °F 71% 29.99 in 10.0 mi West 3.5 mph - N/A   Clear
2:36 AM -7.6 °F -16.5 °F -7.6 °F 100% 29.99 in 10.0 mi West 3.5 mph - N/A   Clear
3:16 AM -7.6 °F -16.5 °F -9.4 °F 92% 29.99 in 10.0 mi West 3.5 mph - N/A   Clear
3:36 AM -7.6 °F -16.5 °F -14.8 °F 71% 30.00 in 10.0 mi West 3.5 mph - N/A   Clear
3:56 AM -7.6 °F -16.5 °F -7.6 °F 100% 30.00 in 9.0 mi West 3.5 mph - N/A   Clear
4:16 AM -5.8 °F -21.2 °F -11.2 °F 77% 30.00 in 10.0 mi West 8.1 mph - N/A   Clear
4:36 AM -7.6 °F -23.4 °F -9.4 °F 92% 30.00 in 10.0 mi West 8.1 mph - N/A   Clear
4:56 AM -7.6 °F -23.4 °F -14.8 °F 71% 29.99 in 10.0 mi WSW 8.1 mph - N/A   Clear
5:16 AM -7.6 °F -18.8 °F -7.6 °F 100% 30.01 in 10.0 mi WSW 4.6 mph - N/A   Clear
5:36 AM -7.6 °F -23.4 °F -14.8 °F 71% 30.01 in 10.0 mi WSW 8.1 mph - N/A   Clear
5:56 AM -7.6 °F -20.6 °F -9.4 °F 92% 30.01 in 10.0 mi WSW 5.8 mph - N/A   Clear
6:16 AM -7.6 °F -22.1 °F -13.0 °F 77% 30.01 in 10.0 mi WSW 6.9 mph - N/A   Clear
6:36 AM -7.6 °F -22.1 °F -9.4 °F 92% 30.02 in 10.0 mi WSW 6.9 mph - N/A   Clear
6:56 AM -7.6 °F -22.1 °F -11.2 °F 84% 30.02 in 10.0 mi WSW 6.9 mph - N/A   Clear
7:16 AM -7.6 °F -22.1 °F -9.4 °F 92% 30.02 in 10.0 mi WSW 6.9 mph - N/A   Clear
7:36 AM -7.6 °F -18.8 °F -13.0 °F 77% 30.02 in 10.0 mi WSW 4.6 mph - N/A   Clear
7:56 AM -7.6 °F -22.1 °F -11.2 °F 84% 30.02 in 10.0 mi WSW 6.9 mph - N/A   Clear
8:16 AM -7.6 °F -18.8 °F -9.4 °F 92% 30.03 in 10.0 mi WSW 4.6 mph - N/A   Clear
8:36 AM -7.6 °F -18.8 °F -13.0 °F 77% 30.03 in 10.0 mi WSW 4.6 mph - N/A   Clear
8:56 AM -7.6 °F -23.4 °F -9.4 °F 92% 30.03 in 10.0 mi West 8.1 mph - N/A   Clear
9:16 AM -5.8 °F -16.7 °F -7.6 °F 92% 30.03 in 10.0 mi West 4.6 mph - N/A   Clear
9:36 AM -7.6 °F - -13.0 °F 77% 30.04 in 10.0 mi Calm Calm - N/A   Clear
9:56 AM -5.8 °F -14.5 °F -11.2 °F 77% 30.05 in 10.0 mi WSW 3.5 mph - N/A   Clear
10:16 AM -5.8 °F - -11.2 °F 77% 30.05 in 10.0 mi Calm Calm - N/A   Clear
10:36 AM -7.6 °F - -11.2 °F 84% 30.06 in 10.0 mi Calm Calm - N/A   Clear
10:56 AM -5.8 °F -18.4 °F -9.4 °F 84% 30.06 in 10.0 mi WSW 5.8 mph - N/A   Clear
11:16 AM -5.8 °F -18.4 °F -7.6 °F 92% 30.07 in 10.0 mi South 5.8 mph - N/A   Clear
11:36 AM -4.0 °F -12.4 °F -7.6 °F 85% 30.06 in 10.0 mi WSW 3.5 mph - N/A   Clear
11:56 AM -4.0 °F -14.6 °F -7.6 °F 85% 30.07 in 10.0 mi West 4.6 mph - N/A   Clear
12:16 PM -4.0 °F -17.8 °F -7.6 °F 85% 30.06 in 10.0 mi WSW 6.9 mph - N/A   Clear
12:36 PM -4.0 °F -17.8 °F -9.4 °F 78% 30.08 in 10.0 mi SSW 6.9 mph - N/A   Partly Cloudy
12:56 PM -5.8 °F -14.5 °F -7.6 °F 92% 30.08 in 10.0 mi SW 3.5 mph - N/A   Clear
1:16 PM -5.8 °F -19.9 °F -7.6 °F 92% 30.09 in 10.0 mi West 6.9 mph - N/A   Clear
1:36 PM -5.8 °F -14.5 °F -9.4 °F 84% 30.09 in 10.0 mi WSW 3.5 mph - N/A   Clear
1:56 PM -5.8 °F -18.4 °F -7.6 °F 92% 30.09 in 10.0 mi WNW 5.8 mph - N/A   Clear
2:16 PM -5.8 °F -14.5 °F -9.4 °F 84% 30.10 in 10.0 mi West 3.5 mph - N/A   Clear
2:36 PM -5.8 °F -16.7 °F -11.2 °F 77% 30.10 in 10.0 mi WSW 4.6 mph - N/A   Clear
2:56 PM -7.6 °F -18.8 °F -11.2 °F 84% 30.10 in 10.0 mi WSW 4.6 mph - N/A   Clear
3:16 PM -7.6 °F -20.6 °F -11.2 °F 84% 30.11 in 10.0 mi WSW 5.8 mph - N/A   Clear
3:36 PM -7.6 °F - -11.2 °F 84% 30.11 in 10.0 mi Calm Calm - N/A   Clear
3:56 PM -7.6 °F - -11.2 °F 84% 30.12 in 7.0 mi Calm Calm - N/A   Clear
4:16 PM -7.6 °F -20.6 °F -13.0 °F 77% 30.12 in 10.0 mi WSW 5.8 mph - N/A   Clear
4:36 PM -7.6 °F -18.8 °F -11.2 °F 84% 30.13 in 10.0 mi WSW 4.6 mph - N/A   Clear
4:56 PM -7.6 °F -18.8 °F -11.2 °F 84% 30.14 in 10.0 mi WSW 4.6 mph - N/A   Clear
5:16 PM -7.6 °F -22.1 °F -11.2 °F 84% 30.15 in 10.0 mi WSW 6.9 mph - N/A   Clear
5:36 PM -7.6 °F -20.6 °F -11.2 °F 84% 30.16 in 10.0 mi WSW 5.8 mph - N/A   Clear
5:56 PM -7.6 °F -16.5 °F -14.8 °F 71% 30.16 in 8.0 mi WSW 3.5 mph - N/A   Partly Cloudy
6:16 PM -9.4 °F -18.6 °F -13.0 °F 84% 30.18 in 10.0 mi SW 3.5 mph - N/A   Partly Cloudy
6:36 PM -9.4 °F -20.9 °F -14.8 °F 77% 30.19 in 10.0 mi WSW 4.6 mph - N/A   Partly Cloudy
6:56 PM -9.4 °F - -13.0 °F 84% 30.20 in 10.0 mi Calm Calm - N/A   Clear
7:16 PM -7.6 °F -18.8 °F -14.8 °F 71% 30.20 in 10.0 mi West 4.6 mph - N/A   Clear
7:36 PM -7.6 °F -16.5 °F -11.2 °F 84% 30.21 in 10.0 mi WSW 3.5 mph - N/A   Clear
7:56 PM -9.4 °F -22.7 °F -13.0 °F 84% 30.22 in 10.0 mi WSW 5.8 mph - N/A   Clear
8:16 PM -9.4 °F -22.7 °F -18.4 °F 65% 30.23 in 10.0 mi SW 5.8 mph - N/A   Clear
8:36 PM -9.4 °F -20.9 °F -9.4 °F 100% 30.23 in 10.0 mi WSW 4.6 mph - N/A   Clear
8:56 PM -7.6 °F - -14.8 °F 71% 30.23 in 10.0 mi Calm Calm - N/A   Clear
9:16 PM -9.4 °F -18.6 °F -16.6 °F 71% 30.23 in 10.0 mi WSW 3.5 mph - N/A   Clear
9:36 PM -9.4 °F -20.9 °F -11.2 °F 92% 30.23 in 10.0 mi SW 4.6 mph - N/A   Clear
9:56 PM -9.4 °F -22.7 °F -14.8 °F 77% 30.24 in 9.0 mi West 5.8 mph - N/A   Clear
10:16 PM -9.4 °F -20.9 °F -9.4 °F 100% 30.24 in 9.0 mi West 4.6 mph - N/A   Clear
10:36 PM -9.4 °F - -16.6 °F 71% 30.24 in 10.0 mi Calm Calm - N/A   Clear
10:56 PM -7.6 °F -16.5 °F -9.4 °F 92% 30.25 in 10.0 mi West 3.5 mph - N/A   Clear
11:16 PM -9.4 °F -24.3 °F -14.8 °F 77% 30.25 in 10.0 mi WNW 6.9 mph - N/A   Clear
11:36 PM -7.6 °F -18.8 °F -9.4 °F 92% 30.25 in 10.0 mi WNW 4.6 mph - N/A   Clear
11:56 PM -7.6 °F - -14.8 °F 71% 30.26 in 10.0 mi Calm Calm - N/A   Clear